Miscellaneous Local Product
Issued by NWS Hastings, NE

Home | Current Version | Previous Version | Graphics & Text | Print | Product List | Glossary On
Versions: 1 2 3 4 5 6 7 8 9 10 11 12 13 14 15 16 17 18 19 20 21 22 23 24 25 26 27 28 29 30 31 32 33 34 35 36 37 38 39 40 41 42 43 44 45 46 47 48 49 50
000
AXUS43 KGID 200502
MISGRI

GID CWA HOURLY WEATHER ROUNDUP
NATIONAL WEATHER SERVICE HASTINGS NE
1200 AM CDT FRI OCT 20 2017

NOTE: "FAIR" INDICATES FEW OR NO CLOUDS BELOW 12,000 FEET WITH NO
SIGNIFICANT WEATHER AND/OR OBSTRUCTIONS TO VISIBILITY.

...SOUTH CENTRAL NEBRASKA...

CITY           SKY/WX    TMP DP  RH WIND       PRES   REMARKS
GRAND ISLAND   FAIR      61  48  62 S15       29.94S
HASTINGS       FAIR      61  46  57 S12       29.96S
KEARNEY        FAIR      61  45  55 S14       29.93S
ORD            MOCLDY    62  44  51 S13       29.89S
YORK           FAIR      63  46  55 S13       29.96S
AURORA         FAIR      61  46  59 S9        29.95S
LEXINGTON      PTCLDY    61  45  56 S10       29.92S
HOLDREGE       FAIR      60  46  61 S13G18    29.93S
HEBRON         FAIR      62  48  58 S12       29.98S

...NEBRASKA PANHANDLE...

CITY           SKY/WX    TMP DP  RH WIND       PRES   REMARKS
CHADRON        CLEAR     67  36  31 S21       29.74F
ALLIANCE       PTCLDY    52  42  69 S10       29.82F
SCOTTSBLUFF    PTCLDY    54  32  43 MISG      29.83R
SIDNEY         PTCLDY    54  39  57 S9        29.87F

...WESTERN AND NORTH CENTRAL NEBRASKA...

CITY           SKY/WX    TMP DP  RH WIND       PRES   REMARKS
VALENTINE      PTCLDY    67  45  45 S15       29.81S
AINSWORTH      PTCLDY    60  48  63 S16       29.83F
ONEILL         PTCLDY    62  49  63 S7        29.87F
BROKEN BOW     MOCLDY    60  45  57 S8        29.90S
IMPERIAL       PTCLDY    60  42  51 S10       29.88F
NORTH PLATTE   PTCLDY    64  43  46 SE8       29.88F
MCCOOK         MOCLDY    64  43  46 S13       29.90F

...EASTERN NEBRASKA...

CITY           SKY/WX    TMP DP  RH WIND       PRES   REMARKS
NORFOLK        FAIR      64  48  56 S15G22    29.91S
SO SIOUX CITY  FAIR      56  52  86 SE8       29.92F
TEKAMAH        FAIR      56  50  80 S7        29.94S
COLUMBUS       FAIR      65  47  52 S16G22    29.94S
ALBION         FAIR      61  48  62 S8        29.92S
OMAHA EPPLEY   FAIR      62  51  67 S12       29.98S
OFFUTT AFB     FAIR      60  50  71 SE9       29.98S
MILLARD        FAIR      65  53  65 SE8       29.98S
LINCOLN        FAIR      63  48  58 S15       29.97F
NEBRASKA CITY  FAIR      61  52  73 S10       30.01S
BEATRICE       FAIR      62  48  59 S10       30.00S
FALLS CITY     FAIR      63  52  67 S10       30.03R

...NORTHERN KANSAS...

CITY           SKY/WX    TMP DP  RH WIND       PRES   REMARKS
GOODLAND       PTCLDY    57  44  62 S16       29.90F
HILL CITY      FAIR      63  46  54 S12       29.95F
NORTON         CLEAR     61  39  44 S12G20    29.93S
PHILLIPSBURG   CLEAR     63  46  55 S8        29.95S
SMITH CENTER   PTCLDY    59  46  63 SE9       29.97S
HAYS           FAIR      62  48  60 S14       29.98S
RUSSELL        FAIR      63  50  62 S17G25    29.98R
CONCORDIA      FAIR      63  49  60 S18G25    29.99S
SALINA         FAIR      64  52  64 S16       30.02S
TOPEKA         FAIR      61  54  77 S6        30.06S



USA.gov is the U.S. government's official web portal to all federal, state and local government web resources and services.